Date,TemperatureHighF,TemperatureAvgF,TemperatureLowF,DewpointHighF,DewpointAvgF,DewpointLowF,HumidityHigh,HumidityAvg,HumidityLow,PressureMaxIn,PressureMinIn,WindSpeedMaxMPH,WindSpeedAvgMPH,GustSpeedMaxMPH,PrecipitationSumIn
2013-9-1,88,75,68,76,72,68,99,91,61,29.95,29.78,18,4,18,0.13
2013-9-2,87,76,68,76,69,62,99,81,45,29.94,29.85,11,3,14,0.00
2013-9-3,79,68,61,67,59,52,99,74,41,30.10,29.94,14,4,14,0.00
2013-9-4,83,67,56,65,59,54,99,80,38,30.19,30.09,9,1,9,0.00
2013-9-5,87,72,59,69,63,57,99,78,40,30.24,30.16,9,2,9,0.00
2013-9-6,86,72,62,70,64,57,99,78,47,30.25,30.11,9,2,9,0.00
2013-9-7,87,72,61,72,65,60,99,82,42,30.12,29.99,14,3,15,0.01
2013-9-8,86,75,68,78,70,64,99,87,48,30.03,29.97,8,2,8,0.07
2013-9-9,92,78,66,76,70,66,99,81,48,30.06,29.98,17,4,17,0.00
2013-9-10,95,80,70,79,75,68,99,86,46,30.17,30.04,18,4,18,0.13
2013-9-11,95,81,70,78,71,59,99,77,32,30.19,30.08,13,5,13,0.00
2013-9-12,82,76,68,77,70,53,99,83,53,30.09,29.95,13,4,13,0.08
2013-9-13,70,62,51,58,51,43,99,69,40,30.13,30.01,19,4,19,0.00
2013-9-14,72,58,44,52,48,43,99,74,38,30.22,30.11,10,2,10,0.00
2013-9-15,78,62,45,60,51,44,99,72,31,30.16,30.06,17,3,17,0.00
2013-9-16,71,65,57,61,59,56,94,82,69,30.29,30.09,14,5,14,0.00
2013-9-17,76,63,52,58,55,50,99,78,42,30.32,30.17,11,3,11,0.00
2013-9-18,79,67,57,71,64,57,99,92,69,30.18,30.08,10,2,11,0.02
2013-9-19,83,72,66,76,70,66,99,94,75,30.15,29.98,15,4,15,0.48
2013-9-20,80,72,68,73,71,68,99,96,74,30.01,29.86,18,5,18,0.26
2013-9-21,73,64,56,68,55,46,99,76,39,29.93,29.82,14,3,14,0.09
2013-9-22,71,59,48,55,51,48,99,79,48,30.05,29.93,12,2,12,0.00
2013-9-23,73,59,46,55,50,45,99,78,41,30.12,30.03,11,2,11,0.01
2013-9-24,79,63,50,66,57,49,99,84,56,30.08,29.91,11,2,11,0.00
2013-9-25,80,68,58,66,62,58,99,84,52,29.95,29.88,11,2,11,0.00
2013-9-26,78,65,52,61,55,42,99,77,34,30.09,29.95,10,2,10,0.01
2013-9-27,82,66,53,65,56,47,99,78,31,30.20,30.09,11,2,11,0.01
2013-9-28,83,66,53,65,57,50,99,80,32,30.18,30.06,17,3,17,0.15
2013-9-29,64,62,58,64,62,58,99,99,91,30.08,30.02,14,4,14,0.32
2013-9-30,71,64,61,70,64,61,99,99,93,30.05,29.98,12,4,12,0.01